Location: Oberwangen
(47.4286°N, 8.9679°E)
Time: 02:33:58
(UTC+00:00)

Cosmos 1825 Rocket - Visible Passes

Search period start: 23 October 2021 00:00
Search period end: 02 November 2021 00:00
Orbit: 603 x 631 km, 82.5° (Epoch: 22 October)

Date Brightness Start Highest point End Pass type
(mag) Time Alt. Az. Time Alt. Az. Time Alt. Az.
23 Oct 4.4 17:52:58 10° N 17:56:26 28° ENE 17:56:26 28° ENE visible
23 Oct 5.6 19:30:49 10° NNW 19:33:35 26° WNW 19:33:35 26° WNW visible
24 Oct 3.6 18:09:27 10° N 18:13:40 50° ENE 18:13:45 50° E visible
24 Oct 6.2 19:48:19 10° NW 19:50:55 17° W 19:50:55 17° W visible
25 Oct 5.4 16:51:03 10° NE 16:51:55 10° ENE 16:52:48 10° ENE visible
25 Oct 3.4 18:26:07 10° N 18:30:28 89° E 18:31:17 59° S visible
26 Oct 5.0 17:06:05 10° NNE 17:09:01 18° ENE 17:11:57 10° ESE visible
26 Oct 4.3 18:42:59 10° NNW 18:47:11 50° W 18:49:10 28° SSW visible
27 Oct 4.3 17:22:14 10° N 17:26:01 29° ENE 17:29:47 10° SE visible
27 Oct 5.4 19:00:04 10° NNW 19:03:48 29° W 19:07:31 10° SSW visible
28 Oct 3.6 17:38:42 10° N 17:42:55 50° ENE 17:47:07 10° SSE visible
28 Oct 6.3 19:17:33 10° NW 19:20:20 17° W 19:23:06 10° SW visible
29 Oct 3.4 17:55:22 10° N 17:59:43 89° E 18:04:03 10° S visible
30 Oct 4.4 18:12:13 10° NNW 18:16:26 51° W 18:20:37 10° S visible
31 Oct 4.3 16:51:29 10° N 16:55:16 29° ENE 16:59:03 10° SE visible
31 Oct 5.5 18:29:19 10° NNW 18:33:04 29° W 18:36:46 10° SSW visible
01 Nov 6.6 05:27:17 10° ESE 05:29:54 16° E 05:32:31 10° NE visible
01 Nov 3.7 17:07:57 10° N 17:12:10 49° ENE 17:16:22 10° SSE visible
01 Nov 6.4 18:46:48 10° NW 18:49:35 17° W 18:52:22 10° SW visible
